Weather History for Martha's Vineyard, MA

Change the Weather History Date:

Sunday, July 20, 2014

  Actual Average Record
Temperature  
Mean Temperature 68 °F -  
Max Temperature 73 °F 79 °F 93 °F (1977)
Min Temperature 62 °F 64 °F 44 °F (2000)
Cooling Degree Days 2    
Growing Degree Days 18 (Base 50)    
Moisture  
Dew Point 61 °F    
Average Humidity 85    
Maximum Humidity 97    
Minimum Humidity 70    
Precipitation  
Precipitation 0.33 in - - ()
Sea Level Pressure  
Sea Level Pressure 30.15 in    
Wind  
Wind Speed 9 mph (NE)    
Max Wind Speed 14 mph    
Max Gust Speed -    
Visibility 8 miles    
Events Rain    
Averages and records for this station are not official NWS values.
T = Trace of Precipitation, MM = Missing Value Source: NWS Daily Summary

Daily Weather History Graph

Daily Weather History Graph

Search for Another Location

Airport:

Trip Planner

Search our weather history database for the weather conditions in past years. The results will help you decide how hot, cold, wet, or windy it might be!

Date:

Astronomy

Jul. 20, 2014 Rise Set
Actual Time 5:26 AM EDT 8:10 PM EDT
Civil Twilight 4:53 AM EDT 8:43 PM EDT
Nautical Twilight 4:13 AM EDT 9:23 PM EDT
Astronomical Twilight 3:26 AM EDT 10:10 PM EDT
Moon 12:37 AM EDT (7/20) 2:50 PM EDT (7/20)
Length of Visible Light 15h 49m
Length of Day
14h 44m
Waning Crescent, 34% of the Moon is Illuminated
Jul 20
Waning Crescent
Jul 26
New
Aug 3
First Quarter
Aug 10
Full
Aug 17
Last Quarter

Hourly Weather History & Observations

Time (EDT) Temp. Dew Point Humidity Pressure Visibility Wind Dir Wind Speed Gust Speed Precip Events Conditions
12:53 AM 64.0 °F 57.9 °F 80% 30.21 in 10.0 mi NNE 4.6 mph - N/A   Partly Cloudy
1:53 AM 64.9 °F 59.0 °F 81% 30.19 in 10.0 mi NE 5.8 mph - N/A   Overcast
2:53 AM 66.0 °F 57.9 °F 75% 30.17 in 10.0 mi ENE 10.4 mph - 0.00 in Rain Light Rain
3:53 AM 66.9 °F 59.0 °F 76% 30.16 in 10.0 mi ENE 10.4 mph - 0.00 in   Mostly Cloudy
4:53 AM 66.9 °F 57.9 °F 73% 30.15 in 10.0 mi ENE 8.1 mph - N/A   Overcast
5:53 AM 66.9 °F 59.0 °F 76% 30.14 in 10.0 mi ENE 8.1 mph - N/A   Overcast
6:53 AM 66.9 °F 57.0 °F 70% 30.17 in 10.0 mi East 11.5 mph - N/A   Mostly Cloudy
7:53 AM 68.0 °F 59.0 °F 73% 30.17 in 10.0 mi ENE 13.8 mph - N/A   Overcast
8:53 AM 68.0 °F 61.0 °F 78% 30.18 in 10.0 mi East 11.5 mph - N/A   Overcast
9:53 AM 68.0 °F 62.1 °F 81% 30.19 in 10.0 mi East 9.2 mph - 0.00 in Rain Light Rain
10:53 AM 68.0 °F 64.0 °F 87% 30.18 in 10.0 mi ENE 9.2 mph - 0.01 in   Overcast
11:53 AM 69.1 °F 63.0 °F 81% 30.17 in 10.0 mi NE 10.4 mph - 0.00 in   Overcast
12:53 PM 71.1 °F 64.9 °F 81% 30.14 in 10.0 mi NE 10.4 mph - 0.00 in Rain Light Rain
1:53 PM 72.0 °F 64.0 °F 76% 30.14 in 10.0 mi ENE 10.4 mph - 0.00 in   Overcast
2:53 PM 73.0 °F 63.0 °F 71% 30.14 in 10.0 mi ENE 11.5 mph - N/A   Overcast
3:53 PM 71.1 °F 61.0 °F 70% 30.13 in 10.0 mi ENE 12.7 mph - N/A   Overcast
4:53 PM 70.0 °F 62.1 °F 76% 30.12 in 10.0 mi ENE 11.5 mph - N/A   Overcast
5:53 PM 64.9 °F 63.0 °F 93% 30.12 in 7.0 mi ENE 12.7 mph - 0.01 in Rain Light Rain
6:17 PM 64.0 °F 62.1 °F 93% 30.12 in 10.0 mi ENE 12.7 mph - 0.00 in   Overcast
6:53 PM 64.0 °F 62.1 °F 93% 30.13 in 1.5 mi NE 11.5 mph - 0.18 in Rain Light Rain
6:56 PM 64.0 °F 62.1 °F 93% 30.13 in 3.0 mi NE 11.5 mph - 0.00 in Rain Light Rain
7:33 PM 63.0 °F 62.1 °F 97% 30.12 in 2.5 mi North 10.4 mph - 0.08 in Rain Heavy Rain
7:44 PM 63.0 °F 62.1 °F 97% 30.12 in 2.5 mi North 6.9 mph - 0.12 in Rain Rain
7:53 PM 63.0 °F 62.1 °F 97% 30.13 in 2.0 mi North 6.9 mph - 0.12 in Rain Light Rain
8:02 PM 63.0 °F 61.0 °F 93% 30.13 in 5.0 mi North 10.4 mph - 0.01 in Rain Light Rain
8:53 PM 62.1 °F 61.0 °F 96% 30.13 in 10.0 mi North 11.5 mph - 0.01 in Rain Light Rain
9:53 PM 63.0 °F 62.1 °F 97% 30.14 in 10.0 mi North 10.4 mph - 0.00 in   Overcast
10:53 PM 63.0 °F 62.1 °F 97% 30.14 in 5.0 mi NNE 8.1 mph - N/A   Overcast
11:04 PM 64.0 °F 62.1 °F 93% 30.13 in 5.0 mi NNE 13.8 mph - N/A   Overcast
11:53 PM 64.0 °F 62.1 °F 93% 30.12 in 7.0 mi NNE 13.8 mph - 0.00 in   Overcast